Date String (YYYY-MM-DD hh:mm:ss) UTC,Instrument flags,Ambient pressure (hPa),Sample flow (lpm),Bypass flow (lpm),Sample temperature (°C),Ambient temperature (°C),ASC tube jacket temperature (°C),LED temperature (°C),Box temperature (°C),Sample RH (%),Span deviation,Mass concentration (μg/m³),Mass concentration (μg/m³),Mass concentration (μg/m³)
DateTimeUTC,F1_M11,P_M11,Q1_M11,Q2_M11,T1_M11,T2_M11,T3_M11,T4_M11,T5_M11,U1_M11,ZSPAN_M11,X0_M11,X2_M11,X1_M11
2022-11-22 10:00:00,,0828.5,5.00,0.00,22.2,20.8,00.0,31.1,23.9,09.6,0002.5,0010.98,0006.66,0006.14
2022-11-22 10:01:00,,0828.5,5.00,0.00,22.2,20.8,00.0,31.1,23.9,09.6,0000.0,0011.05,0006.70,0006.15
2022-11-22 10:02:00,,0828.5,5.00,0.00,22.2,20.8,00.0,31.1,23.9,09.6,0000.0,0011.46,0006.71,0006.15
2022-11-22 10:03:00,,0828.5,5.00,0.00,22.2,20.8,00.0,31.1,23.9,09.6,0000.0,0012.27,0006.69,0006.15
2022-11-22 10:04:00,,0828.5,5.00,0.00,22.2,20.7,00.0,31.1,23.9,09.6,0000.9,0012.38,0006.68,0006.14
2022-11-22 10:05:00,,0828.4,5.00,0.00,22.2,20.7,00.0,31.1,23.9,09.6,0000.9,0012.19,0006.65,0006.13
2022-11-22 10:06:00,,0828.4,4.99,0.00,22.2,20.7,00.0,31.1,24.0,09.6,0000.0,0012.57,0006.64,0006.13
2022-11-22 10:07:00,,0828.4,5.00,0.00,22.1,20.7,00.0,31.1,24.0,09.6,0000.0,0012.70,0006.63,0006.12
2022-11-22 10:08:00,,0828.5,5.01,0.00,22.1,20.7,00.0,31.1,23.9,09.7,0000.0,0012.69,0006.64,0006.12
2022-11-22 10:09:00,,0828.5,5.01,0.00,22.1,20.6,00.0,31.1,23.8,09.7,0000.0,0012.74,0006.67,0006.13
2022-11-22 10:10:00,,0828.4,5.01,0.00,22.1,20.6,00.0,31.1,23.8,09.7,0000.0,0012.69,0006.68,0006.14
2022-11-22 10:11:00,,0828.4,4.99,0.00,22.1,20.6,00.0,31.1,23.8,09.7,0000.0,0012.68,0006.66,0006.16
2022-11-22 10:12:00,,0828.5,5.00,0.00,22.0,20.5,00.0,31.1,23.8,09.7,0000.0,0012.92,0006.64,0006.17
2022-11-22 10:13:00,,0828.5,5.00,0.00,22.0,20.5,00.0,31.1,23.7,09.7,0000.0,0013.06,0006.64,0006.16
2022-11-22 10:14:00,,0828.5,5.02,0.00,22.1,20.9,00.0,31.0,23.9,09.7,0000.0,0012.01,0006.65,0006.17
2022-11-22 10:15:00,,0828.4,5.00,0.00,22.2,21.8,00.0,31.0,24.2,09.6,0000.0,0012.09,0006.62,0006.17
2022-11-22 10:16:00,,0828.5,4.99,0.00,22.3,22.2,00.0,31.0,24.3,09.6,0000.0,0011.99,0006.65,0006.18
2022-11-22 10:17:00,,0828.5,4.99,0.00,22.3,22.0,00.0,31.1,24.3,09.5,0000.0,0011.88,0006.67,0006.20
2022-11-22 10:18:00,,0828.5,4.99,0.00,22.3,21.7,00.0,31.1,24.3,09.6,0000.0,0011.74,0006.67,0006.22
2022-11-22 10:19:00,,0828.5,5.00,0.00,22.3,21.5,00.0,31.1,24.3,09.6,0000.0,0011.76,0006.66,0006.23
2022-11-22 10:20:00,,0828.5,5.01,0.00,22.3,21.3,00.0,31.2,24.2,09.6,0000.0,0011.76,0006.64,0006.22
2022-11-22 10:21:00,,0828.5,5.00,0.00,22.3,21.2,00.0,31.2,24.2,09.6,0000.0,0012.00,0006.63,0006.23
2022-11-22 10:22:00,,0828.5,5.00,0.00,22.3,21.1,00.0,31.2,24.1,09.5,0000.0,0012.14,0006.66,0006.23
2022-11-22 10:23:00,,0828.5,5.01,0.00,22.3,21.1,00.0,31.2,24.1,09.5,0000.0,0011.96,0006.66,0006.23
2022-11-22 10:24:00,,0828.5,5.00,0.00,22.3,21.0,00.0,31.2,24.1,09.6,0000.0,0011.57,0006.64,0006.22
2022-11-22 10:25:00,,0828.4,5.00,0.00,22.2,21.0,00.0,31.2,24.0,09.7,0000.0,0011.50,0006.62,0006.23
2022-11-22 10:26:00,,0828.5,4.99,0.00,22.2,20.9,00.0,31.2,23.9,09.7,0000.0,0011.79,0006.66,0006.25
2022-11-22 10:27:00,,0828.5,4.99,0.00,22.2,20.9,00.0,31.2,23.9,09.7,0000.0,0012.93,0006.68,0006.26
2022-11-22 10:28:00,,0828.4,5.01,0.00,22.2,20.9,00.0,31.2,24.0,09.7,0000.0,0012.76,0006.68,0006.27
2022-11-22 10:29:00,,0828.4,5.02,0.00,22.2,20.8,00.0,31.2,23.9,09.6,0000.0,0012.98,0006.69,0006.27
2022-11-22 10:30:00,,0828.4,5.00,0.00,22.2,20.8,00.0,31.2,23.9,09.6,0000.0,0012.87,0006.70,0006.28
2022-11-22 10:31:00,,0828.4,4.99,0.00,22.2,20.8,00.0,31.2,23.9,09.6,0000.0,0012.82,0006.70,0006.29
2022-11-22 10:32:00,,0828.3,4.99,0.00,22.2,20.8,00.0,31.1,23.9,09.6,0000.0,0012.61,0006.70,0006.29
2022-11-22 10:33:00,,0828.3,5.01,0.00,22.2,20.8,00.0,31.1,24.0,09.6,0000.0,0013.04,0006.70,0006.29
2022-11-22 10:34:00,,0828.4,5.00,0.00,22.2,20.8,00.0,31.1,24.0,09.6,0000.0,0013.06,0006.71,0006.31
2022-11-22 10:35:00,,0828.4,5.00,0.00,22.1,20.8,00.0,31.1,23.9,09.6,0000.0,0013.10,0006.74,0006.34
2022-11-22 10:36:00,,0828.4,4.99,0.00,22.1,20.7,00.0,31.1,23.8,09.6,0000.0,0013.53,0006.80,0006.35
2022-11-22 10:37:00,,0828.4,5.00,0.00,22.1,20.7,00.0,31.1,23.9,09.6,0000.0,0013.44,0006.81,0006.36
2022-11-22 10:38:00,,0828.4,5.02,0.00,22.1,20.7,00.0,31.1,23.8,09.6,0000.0,0012.33,0006.81,0006.35
2022-11-22 10:39:00,,0828.4,5.00,0.00,22.1,20.7,00.0,31.1,23.7,09.7,0000.0,0012.44,0006.83,0006.34
2022-11-22 10:40:00,,0828.5,4.99,0.00,22.1,20.6,00.0,31.1,23.8,09.7,0000.0,0012.30,0006.83,0006.33
2022-11-22 10:41:00,,0828.5,5.01,0.00,22.1,20.6,00.0,31.1,23.8,09.7,0000.0,0013.07,0006.83,0006.34
2022-11-22 10:42:00,,0828.5,5.00,0.00,22.1,20.6,00.0,31.1,23.8,09.8,0000.0,0013.54,0006.86,0006.36
2022-11-22 10:43:00,,0828.5,4.99,0.00,22.0,20.6,00.0,31.1,23.8,09.9,0000.0,0013.63,0006.88,0006.37
2022-11-22 10:44:00,,0828.4,5.01,0.00,22.0,20.6,00.0,31.0,23.7,09.7,0000.0,0013.14,0006.90,0006.40
2022-11-22 10:45:00,,0828.4,5.00,0.00,22.0,20.6,00.0,31.0,23.7,09.7,0000.0,0013.41,0006.92,0006.42
2022-11-22 10:46:00,,0828.5,4.99,0.00,22.0,20.6,00.0,31.0,23.8,09.7,0000.0,0014.24,0006.92,0006.43
2022-11-22 10:47:00,,0828.5,5.02,0.00,22.0,20.6,00.0,31.0,23.7,09.7,0000.0,0014.03,0006.93,0006.45
2022-11-22 10:48:00,,0828.6,5.00,0.00,22.0,20.5,00.0,31.0,23.8,09.7,0000.0,0013.93,0006.94,0006.48
2022-11-22 10:49:00,,0828.9,5.00,0.00,22.0,20.5,00.0,31.0,23.8,09.8,0000.0,0013.56,0006.91,0006.50
2022-11-22 10:50:00,,0828.9,5.00,0.00,22.0,20.5,00.0,31.0,23.8,09.9,0000.0,0013.38,0006.92,0006.52
2022-11-22 10:51:00,,0828.8,4.98,0.00,22.0,20.5,00.0,31.0,23.7,09.9,0001.2,0013.30,0006.96,0006.54
2022-11-22 10:52:00,,0829.1,5.01,0.00,22.0,20.8,00.0,30.9,23.8,09.8,0001.0,0012.61,0006.99,0006.57
2022-11-22 10:53:00,,0829.0,5.00,0.00,22.1,21.6,00.0,30.9,24.0,09.9,0001.0,0012.09,0006.98,0006.57
2022-11-22 10:54:00,,0828.9,5.00,0.00,22.2,21.9,00.0,30.9,24.2,09.8,0001.1,0012.11,0007.01,0006.57
2022-11-22 10:55:00,,0828.7,4.99,0.00,22.2,21.7,00.0,31.0,24.2,09.7,0001.9,0012.20,0007.04,0006.59
2022-11-22 10:56:00,,0828.9,4.99,0.00,22.2,21.5,00.0,31.0,24.2,09.7,0002.4,0011.97,0007.07,0006.59
2022-11-22 10:57:00,,0828.9,5.02,0.00,22.2,21.4,00.0,31.1,24.1,09.6,0001.7,0011.28,0007.09,0006.60
2022-11-22 10:58:00,,0828.7,4.99,0.00,22.2,21.2,00.0,31.1,24.1,09.6,0000.7,0011.30,0007.11,0006.62
2022-11-22 10:59:00,,0828.9,4.99,0.00,22.2,21.1,00.0,31.1,24.1,09.6,0000.8,0011.32,0007.12,0006.62
